Location: Namasale
(1.5000°N, 32.6167°E)
Time: 18:01:11
(UTC+00:00)

Courier 1B - Pass Details

Date: 20 April 2021
Orbit: 962 x 1209 km, 28.3° (Epoch: 18 May)

Event Time Altitude Azimuth Distance (km) Brightness Sun altitude
Rises 04:05:10 0° 217° (SW) 4,076 10.3 4.4°
Reaches altitude 10° 04:08:54 10° 201° (SSW) 3,082 9.8 5.3°
Maximum altitude 04:14:21 21° 155° (SSE) 2,310 9.7 6.6°
Drops below altitude 10° 04:19:37 10° 109° (ESE) 2,957 11.3 7.9°
Sets 04:23:05 0° 93° (E) 3,866 12.5 8.8°
